Location: Peterborough
(44.3091°N, 78.3197°W)
Time: 09:37:42
(UTC-04:00)

A-11 Canister half - Pass Details

Date: 17 September 2024
Orbit: 1515 x 1684 km, 47.2° (Epoch: 02 October)

Event Time Altitude Azimuth Distance (km) Brightness Sun altitude
Rises 21:38:09 0° 269° (W) 4,711 12.5 -24.6°
Reaches altitude 10° 21:41:15 10° 271° (W) 3,711 11.8 -25.1°
Maximum altitude 21:50:36 75° 357° (N) 1,566 9.0 -26.5°
Enters shadow 21:55:11 34° 76° (ENE) 2,283 9.5 -27.2°
